Time,TemperatureF,DewpointF,PressureIn,WindDirection,WindDirectionDegrees,WindSpeedMPH,WindSpeedGustMPH,Humidity,HourlyPrecipIn,Conditions,Clouds,dailyrainin,SolarRadiationWatts/m^2,SoftwareType,DateUTC
2013-01-25 00:04:00,59.0,57.2,30.18,ENE,67,0.0,3.0,94,0.00,,,0.00,0.0,meteohub,2013-01-25 06:04:00,
2013-01-25 00:09:00,59.0,57.2,30.18,ENE,59,0.0,3.0,94,0.00,,,0.00,0.0,meteohub,2013-01-25 06:09:00,
2013-01-25 00:14:00,59.0,57.2,30.17,NE,54,0.0,1.0,94,0.00,,,0.00,0.0,meteohub,2013-01-25 06:14:00,
2013-01-25 00:19:00,59.0,57.6,30.17,NE,53,0.0,1.0,95,0.00,,,0.00,0.0,meteohub,2013-01-25 06:19:00,
2013-01-25 00:24:00,59.0,57.6,30.17,ENE,63,0.0,1.0,95,0.00,,,0.00,0.0,meteohub,2013-01-25 06:24:00,
2013-01-25 00:29:00,58.8,57.0,30.17,ENE,57,0.0,3.0,94,0.00,,,0.00,0.0,meteohub,2013-01-25 06:29:00,
2013-01-25 00:34:00,58.8,57.4,30.17,ENE,60,0.0,2.0,95,0.00,,,0.00,0.0,meteohub,2013-01-25 06:34:00,
2013-01-25 00:39:00,58.6,57.2,30.17,NE,46,0.0,2.0,95,0.00,,,0.00,0.0,meteohub,2013-01-25 06:39:00,
2013-01-25 00:44:00,58.8,57.4,30.17,NE,48,0.0,2.0,95,0.00,,,0.00,0.0,meteohub,2013-01-25 06:44:00,
2013-01-25 00:49:00,58.6,57.2,30.17,NE,49,0.0,2.0,95,0.00,,,0.00,0.0,meteohub,2013-01-25 06:49:00,
2013-01-25 00:54:00,58.6,57.2,30.17,NE,47,0.0,1.0,95,0.00,,,0.00,0.0,meteohub,2013-01-25 06:54:00,
2013-01-25 00:59:00,58.6,57.2,30.17,ENE,63,0.0,1.0,95,0.00,,,0.00,0.0,meteohub,2013-01-25 06:59:00,
2013-01-25 01:04:00,58.6,57.2,30.17,ENE,60,0.0,2.0,95,0.00,,,0.00,0.0,meteohub,2013-01-25 07:04:00,
2013-01-25 01:09:00,58.5,57.0,30.17,ENE,59,0.0,2.0,95,0.00,,,0.00,0.0,meteohub,2013-01-25 07:09:00,
2013-01-25 01:14:00,58.5,57.0,30.17,ENE,59,0.0,2.0,95,0.00,,,0.00,0.0,meteohub,2013-01-25 07:14:00,
2013-01-25 01:19:00,58.5,57.0,30.17,ENE,65,0.0,2.0,95,0.00,,,0.00,0.0,meteohub,2013-01-25 07:19:00,
2013-01-25 01:24:00,58.3,56.8,30.17,ENE,73,1.0,2.0,95,0.00,,,0.00,0.0,meteohub,2013-01-25 07:24:00,
2013-01-25 01:30:00,58.5,57.0,30.17,ENE,72,0.0,2.0,95,0.00,,,0.00,0.0,meteohub,2013-01-25 07:30:00,
2013-01-25 01:35:00,58.5,57.0,30.17,ENE,59,0.0,3.0,95,0.00,,,0.00,0.0,meteohub,2013-01-25 07:35:00,
2013-01-25 01:40:00,58.5,57.0,30.17,ENE,59,0.0,3.0,95,0.00,,,0.00,0.0,meteohub,2013-01-25 07:40:00,
2013-01-25 01:45:00,58.5,57.0,30.17,NE,54,0.0,1.0,95,0.00,,,0.00,0.0,meteohub,2013-01-25 07:45:00,
2013-01-25 01:50:00,58.5,57.0,30.17,NE,53,0.0,1.0,95,0.00,,,0.00,0.0,meteohub,2013-01-25 07:50:00,
2013-01-25 01:55:00,58.3,56.8,30.17,NE,53,0.0,2.0,95,0.00,,,0.00,0.0,meteohub,2013-01-25 07:55:00,
2013-01-25 02:00:00,58.1,56.7,30.17,NE,52,0.0,2.0,95,0.00,,,0.00,0.0,meteohub,2013-01-25 08:00:00,
2013-01-25 02:05:00,57.9,56.5,30.17,NE,48,0.0,1.0,95,0.00,,,0.00,0.0,meteohub,2013-01-25 08:05:00,
2013-01-25 02:10:00,57.7,56.7,30.17,NE,48,0.0,1.0,96,0.00,,,0.00,0.0,meteohub,2013-01-25 08:10:00,
2013-01-25 02:15:00,57.7,56.3,30.17,NE,48,0.0,1.0,95,0.00,,,0.00,0.0,meteohub,2013-01-25 08:15:00,
2013-01-25 02:20:00,57.6,56.1,30.17,NE,48,0.0,1.0,95,0.00,,,0.00,0.0,meteohub,2013-01-25 08:20:00,
2013-01-25 02:25:00,57.6,56.5,30.17,NE,53,0.0,2.0,96,0.00,,,0.00,0.0,meteohub,2013-01-25 08:25:00,
2013-01-25 02:30:00,57.6,56.5,30.17,NE,40,0.0,2.0,96,0.00,,,0.00,0.0,meteohub,2013-01-25 08:30:00,
2013-01-25 02:35:00,57.6,56.5,30.17,NE,40,0.0,3.0,96,0.00,,,0.00,0.0,meteohub,2013-01-25 08:35:00,
2013-01-25 02:40:00,57.6,56.5,30.16,ENE,61,0.0,3.0,96,0.00,,,0.00,0.0,meteohub,2013-01-25 08:40:00,
2013-01-25 02:45:00,57.6,56.5,30.17,ENE,59,0.0,3.0,96,0.00,,,0.00,0.0,meteohub,2013-01-25 08:45:00,
2013-01-25 02:50:00,57.6,56.5,30.16,NE,44,3.0,3.0,96,0.00,,,0.00,0.0,meteohub,2013-01-25 08:50:00,
2013-01-25 02:55:00,57.6,56.5,30.17,NE,46,0.0,3.0,96,0.00,,,0.00,0.0,meteohub,2013-01-25 08:55:00,
2013-01-25 03:00:00,57.6,56.5,30.16,NE,46,0.0,3.0,96,0.00,,,0.00,0.0,meteohub,2013-01-25 09:00:00,
2013-01-25 03:05:00,57.6,56.5,30.16,ENE,73,0.0,3.0,96,0.00,,,0.00,0.0,meteohub,2013-01-25 09:05:00,
2013-01-25 03:10:00,57.4,56.3,30.16,NE,38,0.0,3.0,96,0.00,,,0.00,0.0,meteohub,2013-01-25 09:10:00,
2013-01-25 03:15:00,57.4,56.3,30.16,ENE,68,0.0,3.0,96,0.00,,,0.00,0.0,meteohub,2013-01-25 09:15:00,
2013-01-25 03:20:00,57.2,56.1,30.16,NE,54,0.0,3.0,96,0.00,,,0.00,0.0,meteohub,2013-01-25 09:20:00,
2013-01-25 03:25:00,57.2,56.1,30.16,NE,56,0.0,3.0,96,0.00,,,0.00,0.0,meteohub,2013-01-25 09:25:00,
2013-01-25 03:30:00,57.2,56.1,30.16,ENE,59,1.0,3.0,96,0.00,,,0.00,0.0,meteohub,2013-01-25 09:30:00,
2013-01-25 03:35:00,57.0,55.9,30.16,ENE,65,0.0,3.0,96,0.00,,,0.00,0.0,meteohub,2013-01-25 09:35:00,
2013-01-25 03:40:00,57.0,55.9,30.16,ENE,65,0.0,3.0,96,0.00,,,0.00,0.0,meteohub,2013-01-25 09:40:00,
2013-01-25 03:45:00,57.0,55.9,30.16,NE,49,0.0,3.0,96,0.00,,,0.00,0.0,meteohub,2013-01-25 09:45:00,
2013-01-25 03:50:00,57.0,56.1,30.16,NE,49,0.0,3.0,97,0.00,,,0.00,0.0,meteohub,2013-01-25 09:50:00,
2013-01-25 03:55:00,56.8,55.9,30.16,ENE,59,0.0,3.0,97,0.00,,,0.00,0.0,meteohub,2013-01-25 09:55:00,
2013-01-25 04:00:00,56.8,55.9,30.15,ENE,69,0.0,3.0,97,0.00,,,0.00,0.0,meteohub,2013-01-25 10:00:00,
2013-01-25 04:05:00,56.8,55.9,30.15,ENE,68,0.0,2.0,97,0.00,,,0.00,0.0,meteohub,2013-01-25 10:05:00,
2013-01-25 04:10:00,56.8,55.9,30.15,ENE,68,0.0,2.0,97,0.00,,,0.00,0.0,meteohub,2013-01-25 10:10:00,
2013-01-25 04:15:00,56.8,55.9,30.15,ENE,69,0.0,2.0,97,0.00,,,0.00,0.0,meteohub,2013-01-25 10:15:00,
2013-01-25 04:20:00,56.8,55.9,30.15,ENE,69,0.0,2.0,97,0.00,,,0.00,0.0,meteohub,2013-01-25 10:20:00,
2013-01-25 04:25:00,56.8,55.9,30.15,ENE,69,0.0,2.0,97,0.00,,,0.00,0.0,meteohub,2013-01-25 10:25:00,
2013-01-25 04:30:00,57.2,56.3,30.15,ENE,69,0.0,2.0,97,0.00,,,0.00,0.0,meteohub,2013-01-25 10:30:00,
2013-01-25 04:35:00,57.4,56.5,30.15,ENE,68,0.0,2.0,97,0.00,,,0.00,0.0,meteohub,2013-01-25 10:35:00,
2013-01-25 04:40:00,57.4,56.5,30.15,ENE,69,0.0,2.0,97,0.00,,,0.00,0.0,meteohub,2013-01-25 10:40:00,
2013-01-25 04:45:00,57.6,56.7,30.15,ENE,69,0.0,1.0,97,0.00,,,0.00,0.0,meteohub,2013-01-25 10:45:00,
2013-01-25 04:50:00,57.4,56.5,30.16,ENE,69,0.0,1.0,97,0.00,,,0.00,0.0,meteohub,2013-01-25 10:50:00,
2013-01-25 04:55:00,57.2,56.3,30.16,ENE,69,0.0,1.0,97,0.00,,,0.00,0.0,meteohub,2013-01-25 10:55:00,
2013-01-25 05:00:00,57.2,56.3,30.16,ENE,69,0.0,1.0,97,0.00,,,0.00,0.0,meteohub,2013-01-25 11:00:00,
2013-01-25 05:06:00,57.2,56.3,30.16,ENE,69,0.0,1.0,97,0.00,,,0.00,0.0,meteohub,2013-01-25 11:06:00,
2013-01-25 05:11:00,57.0,56.1,30.16,ENE,68,0.0,0.0,97,0.00,,,0.00,0.0,meteohub,2013-01-25 11:11:00,
2013-01-25 05:16:00,57.0,56.1,30.16,ENE,69,0.0,0.0,97,0.00,,,0.00,0.0,meteohub,2013-01-25 11:16:00,
2013-01-25 05:21:00,57.0,56.1,30.16,ENE,69,0.0,1.0,97,0.00,,,0.00,0.0,meteohub,2013-01-25 11:21:00,
2013-01-25 05:26:00,57.0,56.1,30.16,ENE,68,0.0,1.0,97,0.00,,,0.00,0.0,meteohub,2013-01-25 11:26:00,
2013-01-25 05:31:00,57.0,56.1,30.16,ENE,69,0.0,0.0,97,0.00,,,0.00,0.0,meteohub,2013-01-25 11:31:00,
2013-01-25 05:36:00,57.0,56.1,30.17,ENE,69,0.0,0.0,97,0.00,,,0.00,0.0,meteohub,2013-01-25 11:36:00,
2013-01-25 05:41:00,57.0,56.1,30.17,ENE,68,0.0,0.0,97,0.00,,,0.00,0.0,meteohub,2013-01-25 11:41:00,
2013-01-25 05:46:00,56.8,55.9,30.17,ENE,69,0.0,0.0,97,0.00,,,0.00,0.0,meteohub,2013-01-25 11:46:00,
2013-01-25 05:51:00,56.7,55.8,30.18,ENE,69,0.0,0.0,97,0.00,,,0.00,0.0,meteohub,2013-01-25 11:51:00,
2013-01-25 05:56:00,56.7,55.8,30.18,ENE,68,0.0,0.0,97,0.00,,,0.00,0.0,meteohub,2013-01-25 11:56:00,
2013-01-25 06:01:00,56.7,55.8,30.18,ENE,69,0.0,0.0,97,0.00,,,0.00,0.0,meteohub,2013-01-25 12:01:00,
2013-01-25 06:06:00,56.5,55.6,30.18,ENE,68,0.0,0.0,97,0.00,,,0.00,0.0,meteohub,2013-01-25 12:06:00,
2013-01-25 06:11:00,56.5,55.6,30.18,ENE,69,0.0,0.0,97,0.00,,,0.00,0.0,meteohub,2013-01-25 12:11:00,
2013-01-25 06:16:00,56.3,55.4,30.17,ENE,69,0.0,0.0,97,0.00,,,0.00,0.0,meteohub,2013-01-25 12:16:00,
2013-01-25 06:21:00,56.3,55.4,30.17,ENE,69,0.0,0.0,97,0.00,,,0.00,0.0,meteohub,2013-01-25 12:21:00,
2013-01-25 06:26:00,56.3,55.4,30.17,ENE,69,0.0,0.0,97,0.00,,,0.00,0.0,meteohub,2013-01-25 12:26:00,
2013-01-25 06:31:00,56.5,55.6,30.17,ENE,63,1.0,1.0,97,0.01,,,0.00,0.0,meteohub,2013-01-25 12:31:00,
2013-01-25 06:36:00,56.5,55.6,30.17,ENE,78,0.0,1.0,97,0.01,,,0.01,0.0,meteohub,2013-01-25 12:36:00,
2013-01-25 06:41:00,56.7,55.8,30.17,East,83,0.0,2.0,97,0.01,,,0.01,0.0,meteohub,2013-01-25 12:41:00,
2013-01-25 06:46:00,56.5,55.6,30.17,East,83,0.0,2.0,97,0.01,,,0.01,0.0,meteohub,2013-01-25 12:46:00,
2013-01-25 06:51:00,56.3,55.4,30.17,East,83,0.0,2.0,97,0.01,,,0.01,0.0,meteohub,2013-01-25 12:51:00,
2013-01-25 06:56:00,56.1,55.2,30.17,East,83,0.0,2.0,97,0.01,,,0.01,0.0,meteohub,2013-01-25 12:56:00,
2013-01-25 07:01:00,56.1,55.2,30.17,East,83,0.0,0.0,97,0.01,,,0.01,0.0,meteohub,2013-01-25 13:01:00,
2013-01-25 07:06:00,56.1,55.2,30.17,East,83,0.0,0.0,97,0.01,,,0.01,5.0,meteohub,2013-01-25 13:06:00,
2013-01-25 07:11:00,56.1,55.2,30.17,East,83,0.0,0.0,97,0.01,,,0.01,11.0,meteohub,2013-01-25 13:11:00,
2013-01-25 07:16:00,56.1,55.2,30.17,East,83,0.0,1.0,97,0.01,,,0.01,21.0,meteohub,2013-01-25 13:16:00,
2013-01-25 07:21:00,56.3,55.4,30.17,East,83,0.0,0.0,97,0.01,,,0.01,19.0,meteohub,2013-01-25 13:21:00,
2013-01-25 07:26:00,56.5,55.9,30.17,East,83,0.0,0.0,98,0.01,,,0.01,25.0,meteohub,2013-01-25 13:26:00,
2013-01-25 07:31:00,56.5,55.9,30.17,East,84,0.0,2.0,98,0.00,,,0.01,26.0,meteohub,2013-01-25 13:31:00,
2013-01-25 07:36:00,56.5,55.9,30.17,East,83,0.0,2.0,98,0.00,,,0.01,33.0,meteohub,2013-01-25 13:36:00,
2013-01-25 07:41:00,56.8,55.9,30.17,East,83,0.0,1.0,97,0.00,,,0.01,35.0,meteohub,2013-01-25 13:41:00,
2013-01-25 07:46:00,56.8,55.9,30.17,NE,49,2.0,2.0,97,0.00,,,0.01,37.0,meteohub,2013-01-25 13:46:00,
2013-01-25 07:51:00,57.0,56.5,30.17,ENE,76,0.0,2.0,98,0.00,,,0.01,30.0,meteohub,2013-01-25 13:51:00,
2013-01-25 07:56:00,57.2,56.7,30.17,ENE,76,0.0,2.0,98,0.00,,,0.01,26.0,meteohub,2013-01-25 13:56:00,
2013-01-25 08:01:00,57.2,56.7,30.17,ENE,58,0.0,2.0,98,0.00,,,0.01,39.0,meteohub,2013-01-25 14:01:00,
2013-01-25 08:06:00,57.4,56.8,30.17,ENE,67,0.0,2.0,98,0.00,,,0.01,63.0,meteohub,2013-01-25 14:06:00,
2013-01-25 08:11:00,57.7,57.2,30.17,ENE,69,2.0,2.0,98,0.00,,,0.01,81.0,meteohub,2013-01-25 14:11:00,
2013-01-25 08:16:00,58.3,57.7,30.17,East,83,1.0,2.0,98,0.00,,,0.01,105.0,meteohub,2013-01-25 14:16:00,
2013-01-25 08:21:00,58.8,58.3,30.18,East,83,0.0,3.0,98,0.00,,,0.01,127.0,meteohub,2013-01-25 14:21:00,
2013-01-25 08:26:00,59.0,58.5,30.18,ESE,108,0.0,3.0,98,0.00,,,0.01,86.0,meteohub,2013-01-25 14:26:00,
2013-01-25 08:31:00,59.2,58.6,30.18,East,88,0.0,5.0,98,0.00,,,0.01,171.0,meteohub,2013-01-25 14:31:00,
2013-01-25 08:36:00,59.9,59.4,30.18,East,87,4.0,5.0,98,0.00,,,0.01,255.0,meteohub,2013-01-25 14:36:00,
2013-01-25 08:41:00,60.4,59.9,30.18,ESE,121,5.0,5.0,98,0.00,,,0.01,190.0,meteohub,2013-01-25 14:41:00,
2013-01-25 08:46:00,61.0,60.4,30.18,East,98,0.0,4.0,98,0.00,,,0.01,155.0,meteohub,2013-01-25 14:46:00,
2013-01-25 08:51:00,61.5,60.6,30.18,ENE,61,0.0,9.0,97,0.00,,,0.01,316.0,meteohub,2013-01-25 14:51:00,
2013-01-25 08:56:00,61.9,61.0,30.18,East,100,0.0,9.0,97,0.00,,,0.01,67.0,meteohub,2013-01-25 14:56:00,
2013-01-25 09:01:00,62.1,61.0,30.18,ESE,113,2.0,9.0,96,0.00,,,0.01,190.0,meteohub,2013-01-25 15:01:00,
2013-01-25 09:06:00,62.4,61.3,30.19,East,98,0.0,9.0,96,0.00,,,0.01,69.0,meteohub,2013-01-25 15:06:00,
2013-01-25 09:12:00,62.6,60.8,30.19,NE,36,0.0,8.0,94,0.00,,,0.01,204.0,meteohub,2013-01-25 15:12:00,
2013-01-25 09:17:00,63.0,61.0,30.19,ESE,123,0.0,8.0,93,0.00,,,0.01,345.0,meteohub,2013-01-25 15:17:00,
2013-01-25 09:22:00,63.9,61.5,30.19,ESE,104,0.0,6.0,92,0.00,,,0.01,309.0,meteohub,2013-01-25 15:22:00,
2013-01-25 09:27:00,64.8,61.7,30.19,ESE,118,10.0,10.0,90,0.00,,,0.01,338.0,meteohub,2013-01-25 15:27:00,
2013-01-25 09:32:00,65.1,61.9,30.19,SE,134,2.0,10.0,89,0.00,,,0.01,378.0,meteohub,2013-01-25 15:32:00,
2013-01-25 09:37:00,65.8,62.2,30.20,SSE,162,1.0,10.0,88,0.00,,,0.01,287.0,meteohub,2013-01-25 15:37:00,
2013-01-25 09:42:00,66.0,61.7,30.19,ESE,108,1.0,11.0,86,0.00,,,0.01,144.0,meteohub,2013-01-25 15:42:00,
2013-01-25 09:47:00,66.4,62.1,30.20,SE,130,4.0,11.0,86,0.00,,,0.01,376.0,meteohub,2013-01-25 15:47:00,
2013-01-25 09:52:00,66.2,61.5,30.20,ESE,118,1.0,12.0,85,0.00,,,0.01,480.0,meteohub,2013-01-25 15:52:00,
2013-01-25 09:57:00,66.7,62.4,30.20,SE,125,5.0,12.0,86,0.00,,,0.01,496.0,meteohub,2013-01-25 15:57:00,
2013-01-25 10:02:00,67.6,62.6,30.20,SE,124,0.0,10.0,84,0.00,,,0.01,515.0,meteohub,2013-01-25 16:02:00,
2013-01-25 10:07:00,68.4,63.0,30.20,ESE,110,3.0,10.0,83,0.00,,,0.01,197.0,meteohub,2013-01-25 16:07:00,
2013-01-25 10:12:00,68.4,62.6,30.20,SE,144,0.0,10.0,82,0.00,,,0.01,645.0,meteohub,2013-01-25 16:12:00,
2013-01-25 10:17:00,68.7,62.6,30.20,SSE,156,5.0,14.0,81,0.00,,,0.01,526.0,meteohub,2013-01-25 16:17:00,
2013-01-25 10:22:00,69.4,62.6,30.20,South,175,10.0,14.0,79,0.00,,,0.01,373.0,meteohub,2013-01-25 16:22:00,
2013-01-25 10:27:00,69.4,62.2,30.20,WSW,237,6.0,16.0,78,0.00,,,0.01,251.0,meteohub,2013-01-25 16:27:00,
2013-01-25 10:32:00,69.1,61.9,30.20,SE,131,5.0,16.0,78,0.00,,,0.01,188.0,meteohub,2013-01-25 16:32:00,
2013-01-25 10:37:00,69.1,61.9,30.20,SSE,152,6.0,16.0,78,0.00,,,0.01,200.0,meteohub,2013-01-25 16:37:00,
2013-01-25 10:42:00,69.3,61.7,30.19,ESE,111,6.0,15.0,77,0.00,,,0.01,246.0,meteohub,2013-01-25 16:42:00,
2013-01-25 10:47:00,69.3,61.3,30.19,SSE,154,7.0,15.0,76,0.00,,,0.01,267.0,meteohub,2013-01-25 16:47:00,
2013-01-25 10:52:00,69.4,61.5,30.19,SW,229,2.0,17.0,76,0.00,,,0.01,192.0,meteohub,2013-01-25 16:52:00,
2013-01-25 10:57:00,69.6,61.3,30.19,SE,127,7.0,17.0,75,0.00,,,0.01,251.0,meteohub,2013-01-25 16:57:00,
2013-01-25 11:02:00,70.0,61.7,30.19,SSE,150,3.0,18.0,75,0.00,,,0.01,301.0,meteohub,2013-01-25 17:02:00,
2013-01-25 11:07:00,70.3,61.7,30.19,SE,146,0.0,18.0,74,0.00,,,0.01,388.0,meteohub,2013-01-25 17:07:00,
2013-01-25 11:12:00,70.5,61.5,30.19,SE,141,5.0,18.0,73,0.00,,,0.01,341.0,meteohub,2013-01-25 17:12:00,
2013-01-25 11:17:00,70.9,61.9,30.18,SE,140,3.0,13.0,73,0.00,,,0.01,420.0,meteohub,2013-01-25 17:17:00,
2013-01-25 11:22:00,71.4,61.9,30.19,SE,142,5.0,13.0,72,0.00,,,0.01,274.0,meteohub,2013-01-25 17:22:00,
2013-01-25 11:27:00,71.2,61.7,30.19,SSE,152,0.0,13.0,72,0.00,,,0.01,311.0,meteohub,2013-01-25 17:27:00,
2013-01-25 11:32:00,71.4,61.5,30.18,SE,140,3.0,13.0,71,0.00,,,0.01,287.0,meteohub,2013-01-25 17:32:00,
2013-01-25 11:37:00,72.0,61.2,30.17,South,176,0.0,13.0,69,0.00,,,0.01,355.0,meteohub,2013-01-25 17:37:00,
2013-01-25 11:42:00,71.4,61.2,30.18,SSE,163,0.0,10.0,70,0.00,,,0.01,304.0,meteohub,2013-01-25 17:42:00,
2013-01-25 11:47:00,71.4,61.2,30.18,SSE,166,0.0,10.0,70,0.00,,,0.01,308.0,meteohub,2013-01-25 17:47:00,
2013-01-25 11:52:00,71.6,61.3,30.19,SE,134,4.0,11.0,70,0.00,,,0.01,181.0,meteohub,2013-01-25 17:52:00,
2013-01-25 11:57:00,71.2,61.0,30.19,SE,129,0.0,11.0,70,0.00,,,0.01,116.0,meteohub,2013-01-25 17:57:00,
2013-01-25 12:02:00,71.1,60.8,30.19,SSW,205,0.0,12.0,70,0.00,,,0.01,98.0,meteohub,2013-01-25 18:02:00,
2013-01-25 12:07:00,71.1,60.8,30.18,SSE,156,1.0,12.0,70,0.00,,,0.01,216.0,meteohub,2013-01-25 18:07:00,
2013-01-25 12:12:00,72.9,62.1,30.17,SE,129,3.0,12.0,69,0.00,,,0.01,686.0,meteohub,2013-01-25 18:12:00,
2013-01-25 12:17:00,73.8,60.8,30.17,SE,131,6.0,9.0,64,0.00,,,0.01,353.0,meteohub,2013-01-25 18:17:00,
2013-01-25 12:22:00,73.6,61.2,30.16,South,173,1.0,9.0,65,0.00,,,0.01,550.0,meteohub,2013-01-25 18:22:00,
2013-01-25 12:27:00,74.5,61.5,30.15,SSE,160,5.0,11.0,64,0.00,,,0.01,680.0,meteohub,2013-01-25 18:27:00,
2013-01-25 12:32:00,74.7,60.8,30.15,SE,144,5.0,11.0,62,0.00,,,0.01,682.0,meteohub,2013-01-25 18:32:00,
2013-01-25 12:37:00,74.5,60.6,30.14,SE,140,6.0,13.0,62,0.00,,,0.01,682.0,meteohub,2013-01-25 18:37:00,
2013-01-25 12:42:00,74.3,60.8,30.14,East,98,9.0,13.0,63,0.00,,,0.01,664.0,meteohub,2013-01-25 18:42:00,
2013-01-25 12:47:00,74.7,60.8,30.14,SE,138,0.0,13.0,62,0.00,,,0.01,675.0,meteohub,2013-01-25 18:47:00,
2013-01-25 12:52:00,75.4,60.4,30.13,SE,129,3.0,13.0,60,0.00,,,0.01,673.0,meteohub,2013-01-25 18:52:00,
2013-01-25 12:57:00,75.0,60.3,30.13,SSE,159,4.0,13.0,60,0.00,,,0.01,659.0,meteohub,2013-01-25 18:57:00,
2013-01-25 13:02:00,75.0,59.7,30.12,SE,133,6.0,13.0,59,0.00,,,0.01,148.0,meteohub,2013-01-25 19:02:00,
2013-01-25 13:08:00,74.3,59.9,30.12,SSE,154,3.0,13.0,61,0.00,,,0.01,708.0,meteohub,2013-01-25 19:08:00,
2013-01-25 13:13:00,75.0,60.3,30.12,SE,136,7.0,13.0,60,0.00,,,0.01,700.0,meteohub,2013-01-25 19:13:00,
2013-01-25 13:18:00,75.6,60.6,30.12,SE,142,0.0,13.0,60,0.00,,,0.01,744.0,meteohub,2013-01-25 19:18:00,
2013-01-25 13:23:00,75.9,60.1,30.11,ESE,109,3.0,13.0,58,0.00,,,0.01,227.0,meteohub,2013-01-25 19:23:00,
2013-01-25 13:28:00,75.6,60.6,30.11,SSE,154,2.0,12.0,60,0.00,,,0.01,548.0,meteohub,2013-01-25 19:28:00,
2013-01-25 13:33:00,75.6,60.3,30.11,SE,142,8.0,12.0,59,0.00,,,0.01,548.0,meteohub,2013-01-25 19:33:00,
2013-01-25 13:38:00,75.6,59.7,30.11,SSW,195,4.0,11.0,58,0.00,,,0.01,475.0,meteohub,2013-01-25 19:38:00,
2013-01-25 13:43:00,75.7,60.4,30.10,SSE,156,3.0,11.0,59,0.00,,,0.01,559.0,meteohub,2013-01-25 19:43:00,
2013-01-25 13:48:00,76.3,59.0,30.11,WSW,239,6.0,12.0,55,0.00,,,0.01,555.0,meteohub,2013-01-25 19:48:00,
2013-01-25 13:53:00,76.3,59.4,30.11,SE,136,3.0,12.0,56,0.00,,,0.01,513.0,meteohub,2013-01-25 19:53:00,
2013-01-25 13:58:00,76.1,59.7,30.10,SSE,150,0.0,14.0,57,0.00,,,0.01,223.0,meteohub,2013-01-25 19:58:00,
2013-01-25 14:03:00,76.3,59.4,30.10,ESE,117,5.0,14.0,56,0.00,,,0.01,283.0,meteohub,2013-01-25 20:03:00,
2013-01-25 14:08:00,76.3,59.4,30.10,SE,142,0.0,11.0,56,0.00,,,0.01,239.0,meteohub,2013-01-25 20:08:00,
2013-01-25 14:13:00,75.9,59.2,30.10,SE,144,2.0,13.0,56,0.00,,,0.01,225.0,meteohub,2013-01-25 20:13:00,
2013-01-25 14:18:00,75.6,59.2,30.10,SE,139,0.0,13.0,57,0.00,,,0.01,306.0,meteohub,2013-01-25 20:18:00,
2013-01-25 14:23:00,75.9,59.2,30.10,ESE,123,3.0,13.0,56,0.00,,,0.01,190.0,meteohub,2013-01-25 20:23:00,
2013-01-25 14:28:00,75.6,59.2,30.10,SE,145,3.0,10.0,57,0.00,,,0.01,167.0,meteohub,2013-01-25 20:28:00,
2013-01-25 14:33:00,75.4,58.6,30.10,ENE,76,0.0,10.0,56,0.00,,,0.01,246.0,meteohub,2013-01-25 20:33:00,
2013-01-25 14:38:00,75.6,58.8,30.10,SSE,151,4.0,7.0,56,0.00,,,0.01,229.0,meteohub,2013-01-25 20:38:00,
2013-01-25 14:43:00,75.7,59.0,30.09,SE,126,4.0,7.0,56,0.00,,,0.01,243.0,meteohub,2013-01-25 20:43:00,
2013-01-25 14:48:00,75.6,58.8,30.09,SE,125,0.0,10.0,56,0.00,,,0.01,183.0,meteohub,2013-01-25 20:48:00,
2013-01-25 14:53:00,75.6,59.2,30.09,South,180,5.0,9.0,57,0.00,,,0.01,142.0,meteohub,2013-01-25 20:53:00,
2013-01-25 14:58:00,75.6,59.2,30.09,SSE,154,0.0,9.0,57,0.00,,,0.01,148.0,meteohub,2013-01-25 20:58:00,
2013-01-25 15:03:00,75.9,59.5,30.10,East,94,4.0,9.0,57,0.00,,,0.01,151.0,meteohub,2013-01-25 21:03:00,
2013-01-25 15:08:00,75.9,59.2,30.09,SE,133,5.0,11.0,56,0.00,,,0.01,125.0,meteohub,2013-01-25 21:08:00,
2013-01-25 15:13:00,75.6,58.8,30.09,ESE,121,1.0,10.0,56,0.00,,,0.01,162.0,meteohub,2013-01-25 21:13:00,
2013-01-25 15:18:00,75.4,58.6,30.09,South,180,6.0,10.0,56,0.00,,,0.01,155.0,meteohub,2013-01-25 21:18:00,
2013-01-25 15:23:00,75.2,59.0,30.09,SSE,147,4.0,10.0,57,0.00,,,0.01,239.0,meteohub,2013-01-25 21:23:00,
2013-01-25 15:28:00,75.6,59.2,30.09,SE,132,0.0,10.0,57,0.00,,,0.01,186.0,meteohub,2013-01-25 21:28:00,
2013-01-25 15:33:00,75.7,59.4,30.09,SE,146,0.0,10.0,57,0.00,,,0.01,192.0,meteohub,2013-01-25 21:33:00,
2013-01-25 15:38:00,75.6,59.2,30.08,SE,145,4.0,10.0,57,0.00,,,0.01,100.0,meteohub,2013-01-25 21:38:00,
2013-01-25 15:43:00,75.2,58.5,30.08,ESE,120,0.0,10.0,56,0.00,,,0.01,121.0,meteohub,2013-01-25 21:43:00,
2013-01-25 15:48:00,75.0,58.8,30.08,SSE,167,7.0,10.0,57,0.00,,,0.01,105.0,meteohub,2013-01-25 21:48:00,
2013-01-25 15:53:00,75.0,59.2,30.08,SSE,162,0.0,10.0,58,0.00,,,0.01,193.0,meteohub,2013-01-25 21:53:00,
2013-01-25 15:58:00,75.6,59.2,30.08,SSE,151,1.0,10.0,57,0.00,,,0.01,183.0,meteohub,2013-01-25 21:58:00,
2013-01-25 16:03:00,75.6,58.8,30.08,ESE,106,4.0,10.0,56,0.00,,,0.01,84.0,meteohub,2013-01-25 22:03:00,
2013-01-25 16:08:00,75.4,59.0,30.08,ESE,123,0.0,9.0,57,0.00,,,0.01,121.0,meteohub,2013-01-25 22:08:00,
2013-01-25 16:13:00,75.4,59.0,30.07,SE,137,4.0,11.0,57,0.00,,,0.01,95.0,meteohub,2013-01-25 22:13:00,
2013-01-25 16:18:00,75.2,59.4,30.07,ESE,123,5.0,11.0,58,0.00,,,0.01,95.0,meteohub,2013-01-25 22:18:00,
2013-01-25 16:23:00,75.0,59.2,30.07,SE,132,0.0,11.0,58,0.00,,,0.01,163.0,meteohub,2013-01-25 22:23:00,
2013-01-25 16:28:00,75.0,59.2,30.08,SE,133,7.0,11.0,58,0.00,,,0.01,141.0,meteohub,2013-01-25 22:28:00,
2013-01-25 16:33:00,74.8,59.0,30.07,ESE,123,5.0,13.0,58,0.00,,,0.01,118.0,meteohub,2013-01-25 22:33:00,
2013-01-25 16:38:00,74.7,59.4,30.07,SE,135,0.0,13.0,59,0.00,,,0.01,56.0,meteohub,2013-01-25 22:38:00,
2013-01-25 16:43:00,74.3,59.0,30.07,SE,126,3.0,13.0,59,0.00,,,0.01,37.0,meteohub,2013-01-25 22:43:00,
2013-01-25 16:48:00,74.1,59.4,30.07,SE,124,2.0,13.0,60,0.00,,,0.01,47.0,meteohub,2013-01-25 22:48:00,
2013-01-25 16:53:00,73.9,59.2,30.07,ESE,116,2.0,9.0,60,0.00,,,0.01,32.0,meteohub,2013-01-25 22:53:00,
2013-01-25 16:58:00,73.8,59.5,30.07,ESE,123,0.0,9.0,61,0.00,,,0.01,30.0,meteohub,2013-01-25 22:58:00,
2013-01-25 17:03:00,73.6,59.4,30.08,SE,125,3.0,9.0,61,0.00,,,0.01,25.0,meteohub,2013-01-25 23:03:00,
2013-01-25 17:08:00,73.4,59.2,30.08,ESE,119,0.0,9.0,61,0.00,,,0.01,21.0,meteohub,2013-01-25 23:08:00,
2013-01-25 17:14:00,73.0,59.2,30.08,SE,125,3.0,7.0,62,0.00,,,0.01,18.0,meteohub,2013-01-25 23:14:00,
2013-01-25 17:19:00,72.9,59.5,30.08,ESE,115,0.0,7.0,63,0.00,,,0.01,14.0,meteohub,2013-01-25 23:19:00,
2013-01-25 17:24:00,72.7,59.4,30.09,ESE,117,2.0,7.0,63,0.00,,,0.01,12.0,meteohub,2013-01-25 23:24:00,
2013-01-25 17:29:00,72.3,59.0,30.09,ESE,121,0.0,9.0,63,0.00,,,0.01,9.0,meteohub,2013-01-25 23:29:00,
2013-01-25 17:34:00,72.0,59.2,30.09,ESE,121,0.0,7.0,64,0.00,,,0.01,7.0,meteohub,2013-01-25 23:34:00,
2013-01-25 17:39:00,71.6,59.2,30.09,ESE,121,0.0,7.0,65,0.00,,,0.01,0.0,meteohub,2013-01-25 23:39:00,
2013-01-25 17:44:00,71.2,58.8,30.09,ESE,121,0.0,5.0,65,0.00,,,0.01,0.0,meteohub,2013-01-25 23:44:00,
2013-01-25 17:49:00,71.1,59.2,30.10,ESE,121,0.0,5.0,66,0.00,,,0.01,0.0,meteohub,2013-01-25 23:49:00,
2013-01-25 17:54:00,70.5,59.0,30.10,ESE,121,0.0,4.0,67,0.00,,,0.01,0.0,meteohub,2013-01-25 23:54:00,
2013-01-25 17:59:00,70.3,59.4,30.10,ESE,121,0.0,4.0,68,0.00,,,0.01,0.0,meteohub,2013-01-25 23:59:00,
2013-01-25 18:04:00,70.2,59.5,30.11,ESE,121,0.0,4.0,69,0.00,,,0.01,0.0,meteohub,2013-01-26 00:04:00,
2013-01-25 18:09:00,70.2,59.5,30.11,ESE,121,0.0,1.0,69,0.00,,,0.01,0.0,meteohub,2013-01-26 00:09:00,
2013-01-25 18:14:00,70.2,59.5,30.11,ESE,121,0.0,0.0,69,0.00,,,0.01,0.0,meteohub,2013-01-26 00:14:00,
2013-01-25 18:19:00,70.0,59.4,30.11,ESE,121,0.0,0.0,69,0.00,,,0.01,0.0,meteohub,2013-01-26 00:19:00,
2013-01-25 18:24:00,69.6,59.4,30.11,ESE,121,0.0,0.0,70,0.00,,,0.01,0.0,meteohub,2013-01-26 00:24:00,
2013-01-25 18:29:00,69.4,59.5,30.11,ESE,121,0.0,1.0,71,0.00,,,0.01,0.0,meteohub,2013-01-26 00:29:00,
2013-01-25 18:34:00,69.1,59.7,30.11,ESE,121,0.0,1.0,72,0.00,,,0.01,0.0,meteohub,2013-01-26 00:34:00,
2013-01-25 18:39:00,68.7,59.7,30.12,ESE,121,0.0,1.0,73,0.00,,,0.01,0.0,meteohub,2013-01-26 00:39:00,
2013-01-25 18:44:00,68.4,59.7,30.12,ESE,121,0.0,3.0,74,0.00,,,0.01,0.0,meteohub,2013-01-26 00:44:00,
2013-01-25 18:49:00,68.2,59.5,30.12,ESE,121,0.0,3.0,74,0.00,,,0.01,0.0,meteohub,2013-01-26 00:49:00,
2013-01-25 18:54:00,67.8,59.5,30.12,ESE,121,0.0,3.0,75,0.00,,,0.01,0.0,meteohub,2013-01-26 00:54:00,
2013-01-25 18:59:00,67.5,59.5,30.12,ESE,121,0.0,3.0,76,0.00,,,0.01,0.0,meteohub,2013-01-26 00:59:00,
2013-01-25 19:04:00,67.5,59.5,30.12,ESE,121,0.0,3.0,76,0.00,,,0.01,0.0,meteohub,2013-01-26 01:04:00,
2013-01-25 19:09:00,66.9,59.5,30.12,ESE,121,0.0,1.0,77,0.00,,,0.01,0.0,meteohub,2013-01-26 01:09:00,
2013-01-25 19:14:00,66.7,59.7,30.12,ESE,121,0.0,0.0,78,0.00,,,0.01,0.0,meteohub,2013-01-26 01:14:00,
2013-01-25 19:19:00,66.7,59.7,30.12,ESE,121,0.0,0.0,78,0.00,,,0.01,0.0,meteohub,2013-01-26 01:19:00,
2013-01-25 19:24:00,66.9,59.9,30.13,ESE,120,0.0,4.0,78,0.00,,,0.01,0.0,meteohub,2013-01-26 01:24:00,
2013-01-25 19:29:00,66.9,59.9,30.13,ESE,120,3.0,4.0,78,0.00,,,0.01,0.0,meteohub,2013-01-26 01:29:00,
2013-01-25 19:34:00,66.7,60.1,30.13,ESE,121,0.0,4.0,79,0.00,,,0.01,0.0,meteohub,2013-01-26 01:34:00,
2013-01-25 19:39:00,66.6,60.3,30.13,ESE,121,0.0,4.0,80,0.00,,,0.01,0.0,meteohub,2013-01-26 01:39:00,
2013-01-25 19:44:00,66.6,60.3,30.13,ESE,121,0.0,3.0,80,0.00,,,0.01,0.0,meteohub,2013-01-26 01:44:00,
2013-01-25 19:49:00,66.4,60.4,30.13,ESE,121,0.0,3.0,81,0.00,,,0.01,0.0,meteohub,2013-01-26 01:49:00,
2013-01-25 19:54:00,66.0,60.1,30.13,ESE,121,0.0,1.0,81,0.00,,,0.01,0.0,meteohub,2013-01-26 01:54:00,
2013-01-25 19:59:00,65.8,60.3,30.13,ESE,114,0.0,1.0,82,0.00,,,0.01,0.0,meteohub,2013-01-26 01:59:00,
2013-01-25 20:04:00,65.8,60.3,30.13,ESE,114,0.0,5.0,82,0.00,,,0.01,0.0,meteohub,2013-01-26 02:04:00,
2013-01-25 20:09:00,65.7,60.1,30.13,ESE,114,0.0,5.0,82,0.00,,,0.01,0.0,meteohub,2013-01-26 02:09:00,
2013-01-25 20:14:00,65.5,60.3,30.13,East,84,0.0,3.0,83,0.00,,,0.01,0.0,meteohub,2013-01-26 02:14:00,
2013-01-25 20:19:00,65.3,60.3,30.13,East,84,0.0,3.0,84,0.00,,,0.01,0.0,meteohub,2013-01-26 02:19:00,
2013-01-25 20:24:00,65.5,60.4,30.13,ESE,104,0.0,6.0,84,0.00,,,0.01,0.0,meteohub,2013-01-26 02:24:00,
2013-01-25 20:29:00,65.3,60.3,30.13,ESE,110,0.0,6.0,84,0.00,,,0.01,0.0,meteohub,2013-01-26 02:29:00,
2013-01-25 20:34:00,65.1,60.1,30.13,ESE,109,0.0,6.0,84,0.00,,,0.01,0.0,meteohub,2013-01-26 02:34:00,
2013-01-25 20:39:00,64.9,60.3,30.13,ESE,113,2.0,6.0,85,0.00,,,0.01,0.0,meteohub,2013-01-26 02:39:00,
2013-01-25 20:44:00,64.9,60.6,30.13,ESE,113,0.0,5.0,86,0.00,,,0.01,0.0,meteohub,2013-01-26 02:44:00,
2013-01-25 20:49:00,64.8,60.4,30.13,ESE,114,0.0,5.0,86,0.00,,,0.01,0.0,meteohub,2013-01-26 02:49:00,
2013-01-25 20:54:00,64.8,60.4,30.13,ESE,121,0.0,5.0,86,0.00,,,0.01,0.0,meteohub,2013-01-26 02:54:00,
2013-01-25 20:59:00,64.6,60.6,30.13,ESE,103,0.0,5.0,87,0.00,,,0.01,0.0,meteohub,2013-01-26 02:59:00,
2013-01-25 21:04:00,64.6,60.6,30.13,ESE,121,0.0,5.0,87,0.00,,,0.01,0.0,meteohub,2013-01-26 03:04:00,
2013-01-25 21:09:00,64.4,60.4,30.13,ESE,121,0.0,5.0,87,0.00,,,0.01,0.0,meteohub,2013-01-26 03:09:00,
2013-01-25 21:14:00,64.4,60.8,30.13,ESE,121,2.0,4.0,88,0.00,,,0.01,0.0,meteohub,2013-01-26 03:14:00,
2013-01-25 21:19:00,64.2,60.6,30.13,ESE,122,0.0,4.0,88,0.00,,,0.01,0.0,meteohub,2013-01-26 03:19:00,
2013-01-25 21:24:00,64.0,60.4,30.14,ESE,122,0.0,4.0,88,0.00,,,0.01,0.0,meteohub,2013-01-26 03:24:00,
2013-01-25 21:29:00,64.0,60.4,30.14,ESE,122,2.0,4.0,88,0.00,,,0.01,0.0,meteohub,2013-01-26 03:29:00,
2013-01-25 21:34:00,63.9,60.6,30.14,ESE,122,0.0,3.0,89,0.00,,,0.01,0.0,meteohub,2013-01-26 03:34:00,
2013-01-25 21:39:00,63.7,60.4,30.14,ESE,122,0.0,3.0,89,0.00,,,0.01,0.0,meteohub,2013-01-26 03:39:00,
2013-01-25 21:44:00,63.7,60.4,30.14,ESE,122,1.0,3.0,89,0.00,,,0.01,0.0,meteohub,2013-01-26 03:44:00,
2013-01-25 21:49:00,63.5,60.3,30.14,ESE,122,0.0,3.0,89,0.00,,,0.01,0.0,meteohub,2013-01-26 03:49:00,
2013-01-25 21:54:00,63.3,60.3,30.15,ESE,122,0.0,2.0,90,0.00,,,0.01,0.0,meteohub,2013-01-26 03:54:00,
2013-01-25 21:59:00,63.1,60.1,30.15,ESE,122,0.0,2.0,90,0.00,,,0.01,0.0,meteohub,2013-01-26 03:59:00,
2013-01-25 22:04:00,63.1,60.1,30.15,ESE,122,0.0,3.0,90,0.00,,,0.01,0.0,meteohub,2013-01-26 04:04:00,
2013-01-25 22:10:00,63.1,60.1,30.15,ESE,122,0.0,3.0,90,0.00,,,0.01,0.0,meteohub,2013-01-26 04:10:00,
2013-01-25 22:15:00,63.0,60.3,30.15,ESE,122,0.0,4.0,91,0.00,,,0.01,0.0,meteohub,2013-01-26 04:15:00,
2013-01-25 22:20:00,62.8,60.1,30.15,ESE,122,0.0,4.0,91,0.00,,,0.01,0.0,meteohub,2013-01-26 04:20:00,
2013-01-25 22:25:00,62.8,60.1,30.15,ESE,122,0.0,1.0,91,0.00,,,0.01,0.0,meteohub,2013-01-26 04:25:00,
2013-01-25 22:30:00,62.2,59.5,30.16,ESE,122,0.0,1.0,91,0.00,,,0.01,0.0,meteohub,2013-01-26 04:30:00,
2013-01-25 22:35:00,62.1,59.4,30.16,ESE,122,0.0,1.0,91,0.00,,,0.01,0.0,meteohub,2013-01-26 04:35:00,
2013-01-25 22:40:00,61.3,58.6,30.16,ESE,122,0.0,1.0,91,0.00,,,0.01,0.0,meteohub,2013-01-26 04:40:00,
2013-01-25 22:45:00,61.0,58.6,30.17,ESE,122,0.0,0.0,92,0.00,,,0.01,0.0,meteohub,2013-01-26 04:45:00,
2013-01-25 22:50:00,61.0,59.0,30.17,ESE,122,0.0,0.0,93,0.00,,,0.01,0.0,meteohub,2013-01-26 04:50:00,
2013-01-25 22:55:00,61.3,59.5,30.17,ESE,122,0.0,1.0,94,0.00,,,0.01,0.0,meteohub,2013-01-26 04:55:00,
2013-01-25 23:00:00,61.7,59.7,30.17,ESE,122,0.0,1.0,93,0.00,,,0.01,0.0,meteohub,2013-01-26 05:00:00,
2013-01-25 23:01:00,61.9,59.9,30.17,ESE,122,0.0,1.0,93,0.00,,,0.01,0.0,meteohub,2013-01-26 05:01:00,
2013-01-25 23:06:00,61.9,59.9,30.17,ESE,122,0.0,1.0,93,0.00,,,0.01,0.0,meteohub,2013-01-26 05:06:00,
2013-01-25 23:11:00,61.7,59.7,30.17,ESE,122,0.0,1.0,93,0.00,,,0.01,0.0,meteohub,2013-01-26 05:11:00,
2013-01-25 23:16:00,61.5,59.5,30.17,ESE,122,0.0,0.0,93,0.00,,,0.01,0.0,meteohub,2013-01-26 05:16:00,
2013-01-25 23:21:00,61.9,59.9,30.17,ESE,122,0.0,0.0,93,0.00,,,0.01,0.0,meteohub,2013-01-26 05:21:00,
2013-01-25 23:26:00,62.2,60.4,30.17,ESE,122,1.0,0.0,94,0.00,,,0.01,0.0,meteohub,2013-01-26 05:26:00,
2013-01-25 23:31:00,62.4,60.4,30.17,ESE,122,0.0,0.0,93,0.00,,,0.01,0.0,meteohub,2013-01-26 05:31:00,
2013-01-25 23:36:00,62.4,60.4,30.17,ESE,122,0.0,2.0,93,0.00,,,0.01,0.0,meteohub,2013-01-26 05:36:00,
2013-01-25 23:41:00,62.4,60.4,30.17,ESE,122,0.0,2.0,93,0.00,,,0.01,0.0,meteohub,2013-01-26 05:41:00,
2013-01-25 23:46:00,62.2,60.3,30.17,ESE,122,0.0,2.0,93,0.00,,,0.01,0.0,meteohub,2013-01-26 05:46:00,
2013-01-25 23:51:00,62.2,60.3,30.17,ESE,122,0.0,2.0,93,0.00,,,0.01,0.0,meteohub,2013-01-26 05:51:00,
2013-01-25 23:56:00,62.2,60.3,30.17,ESE,122,0.0,0.0,93,0.00,,,0.01,0.0,meteohub,2013-01-26 05:56:00,